Terminal Aerodrome Forecast
Issued by NWS

Home | Current Version | Previous Version | Text Only | Print | Product List | Glossary On
Versions: 1 2 3 4 5 6 7 8 9 10 11 12 13 14 15 16 17 18 19 20 21 22 23 24
356
FTUS43 KDVN 280546 AAA
TAFCID
TAF AMD
KCID 280546Z 2806/2906 16006KT 4SM RA BR SCT020 OVC060
      TEMPO 2806/2808 2SM TSRA BR OVC025CB
     FM280800 21005KT 6SM BR VCSH BKN025
     FM281600 18010KT P6SM BKN035 PROB30 2821/2901 4SM TSRA BKN025CB
     FM290100 20006KT P6SM BKN200=

USA.gov is the U.S. government's official web portal to all federal, state and local government web resources and services.